User: anonymous   Login
Location: Bukit Lungun
(2.6833°N, 113.9667°E)
Time: 01:40:40
(UTC+00:00)
Language:

SWAS - Orbit

View from above orbital plane
View from above orbital plane
View from above satellite
View from above satellite

Ground track
Ground track

The orbit data is extracted from the following two-line orbital elements,

1 25560U 98071A   21125.17502443  .00000177  00000-0  25133-4 0  9993
2 25560  69.8978 294.0849 0009984 229.1276 130.9016 14.94057510217053
Epoch (UTC): 05 May 2021 04:12:02
Eccentricity: 0.0009984
inclination: 69.8978°
perigee height: 578 km
apogee height: 592 km
right ascension of ascending node: 294.0849°
argument of perigee: 229.1276°
revolutions per day: 14.94057510
mean anomaly at epoch: 130.9016°
orbit number at epoch: 21705

The dashed part of the orbit path shows where the satellite is in the earth's shadow,  

DLR